Zurück zum Katalog

HIMAWARI 8

AktivWetterGEO
NORAD 40267·PAYLOAD·🇯🇵 Japan

Gestartet Oct 7, 2014 von Tanegashima Space Center

Loading…

TLE

AktuellSource: Space-Track

Epoche: Sep 14, 2026, 12:45 UTC

1 40267U 14060A   26257.53171539 -.00000284  00000-0  00000-0 0  9991
2 40267   0.0386 315.1853 0001234 248.1496 122.2703  1.00269769 43653

Verfolge HIMAWARI 8 in Echtzeit mit AllMySat

Download on the App Store